This demonstration page uses our WeatherBlox Daily Observations layout. Learn more.

Left ArrowRight Arrow

Hourly Observations for September 8, 2018

Temp ( °F °C ) Dew Point ( °F °C ) Humidity (%) Winds ( mph kmh ) Pressure ( in mb ) Visibility ( mi km ) Precip ( " mm )
12:15 am 00:15 Clear 68 20 68 20 100 100 Calm 30.09 1019 10 16 0.00 0.00
12:35 am 00:35 Partly Cloudy 68 20 68 20 100 100 Calm 30.09 1019 10 16 0.01 0.25
12:55 am 00:55 Partly Cloudy 68 20 68 20 100 100 Calm 30.09 1019 10 16 0.01 0.25
1:15 am 01:15 Mostly Cloudy 68 20 68 20 100 100 NNE 3 6 30.09 1019 10 16 0.00 0.00
1:35 am 01:35 Partly Cloudy 68 20 68 20 100 100 NNE 3 6 30.12 1020 10 16 0.01 0.25
1:55 am 01:55 Mostly Cloudy 68 20 68 20 100 100 NNE 3 6 30.09 1019 10 16 0.01 0.25
2:15 am 02:15 Cloudy 68 20 68 20 100 100 N 5 7 30.09 1019 10 16 0.00 0.00
2:35 am 02:35 Mostly Cloudy 66 19 66 19 100 100 N 3 6 30.09 1019 10 16 0.00 0.00
2:55 am 02:55 Mostly Cloudy 66 19 66 19 100 100 Calm 30.06 1018 10 16 0.00 0.00
3:15 am 03:15 Cloudy 66 19 66 19 100 100 NNW 3 6 30.06 1018 10 16 0.00 0.00
3:35 am 03:35 Mostly Cloudy 66 19 66 19 100 100 NNW 5 7 30.06 1018 10 16 0.00 0.00
3:55 am 03:55 Partly Cloudy 66 19 66 19 100 100 Calm 30.06 1018 10 16 0.00 0.00
4:15 am 04:15 Clear 64 18 64 18 100 100 Calm 30.06 1018 10 16 0.00 0.00
4:35 am 04:35 Clear 66 19 66 19 100 100 N 3 6 30.06 1018 10 16 0.00 0.00
4:55 am 04:55 Clear 64 18 64 18 100 100 NNW 5 7 30.06 1018 10 16 0.00 0.00
5:15 am 05:15 Clear 64 18 64 18 100 100 Calm 30.06 1018 10 16 0.00 0.00
5:35 am 05:35 Partly Cloudy 66 19 66 19 100 100 NNE 5 7 30.06 1018 10 16 0.00 0.00
5:55 am 05:55 Partly Cloudy 66 19 66 19 100 100 NNE 5 7 30.06 1018 10 16 0.00 0.00
6:15 am 06:15 Clear 66 19 66 19 100 100 N 3 6 30.06 1018 10 16 0.00 0.00
6:35 am 06:35 Partly Cloudy 66 19 66 19 100 100 Calm 30.06 1018 10 16 0.00 0.00
6:55 am 06:55 Cloudy 66 19 66 19 100 100 NE 3 6 30.06 1018 10 16 0.00 0.00
7:15 am 07:15 Cloudy 66 19 66 19 100 100 N 3 6 30.06 1018 10 16 0.00 0.00
7:35 am 07:35 Cloudy 66 19 66 19 100 100 NNE 3 6 30.06 1018 7 11 0.00 0.00
7:55 am 07:55 Cloudy 66 19 66 19 100 100 NNE 13 20 30.06 1018 10 16 0.00 0.00
8:15 am 08:15 Cloudy 66 19 66 19 100 100 NNE 9 15 30.06 1018 10 16 0.00 0.00
8:35 am 08:35 Cloudy 64 18 64 18 100 100 NNE 13 20 30.06 1018 10 16 0.00 0.00
8:55 am 08:55 Cloudy 64 18 63 17 94 94 NNE 10 17 30.09 1019 10 16 0.00 0.00
9:15 am 09:15 Cloudy 64 18 63 17 94 94 NNE 10 17 30.09 1019 10 16 0.00 0.00
9:35 am 09:35 Cloudy 64 18 63 17 94 94 NNE 12 19 30.09 1019 10 16 0.00 0.00
9:55 am 09:55 Cloudy 64 18 63 17 94 94 NE 12 19 30.09 1019 10 16 0.01 0.25
10:15 am 10:15 Cloudy 64 18 61 16 88 88 NE 14 22 30.09 1019 10 16 0.00 0.00
10:35 am 10:35 Cloudy 66 19 61 16 83 83 NE 15 24 30.09 1019 10 16 0.00 0.00
10:55 am 10:55 Cloudy 64 18 59 15 83 83 NE 12 19 30.09 1019 10 16 0.00 0.00
11:15 am 11:15 Cloudy 66 19 59 15 78 78 NE 12 19 30.09 1019 10 16 0.00 0.00
11:35 am 11:35 Cloudy 68 20 61 16 78 78 NE 10 17 30.09 1019 10 16 0.00 0.00
11:55 am 11:55 Cloudy 66 19 63 17 88 88 NE 12 19 30.09 1019 10 16 0.00 0.00
12:15 pm 12:15 Cloudy 64 18 59 15 83 83 N 12 19 30.12 1020 10 16 0.00 0.00
12:35 pm 12:35 Cloudy 63 17 59 15 88 88 NNE 8 13 30.12 1020 10 16 0.00 0.00
12:55 pm 12:55 Cloudy 63 17 59 15 88 88 NNE 12 19 30.12 1020 10 16 0.00 0.00
1:15 pm 13:15 Cloudy with Heavy Rain 63 17 59 15 88 88 N 15 24 30.12 1020 5 8 0.00 0.00
1:35 pm 13:35 Cloudy with Heavy Rain 59 15 59 15 100 100 NNE 12 19 30.12 1020 2 2 0.01 0.25
1:55 pm 13:55 Cloudy with Rain 61 16 61 16 100 100 NNE 13 20 30.12 1020 5 8 0.05 1.27
2:15 pm 14:15 Cloudy with Rain 61 16 61 16 100 100 N 10 17 30.12 1020 5 8 0.03 0.76
2:35 pm 14:35 Cloudy 61 16 61 16 100 100 NNE 12 19 30.12 1020 10 16 0.07 1.78
2:55 pm 14:55 Cloudy 59 15 59 15 100 100 NNE 15 24 30.12 1020 10 16 0.10 2.54
3:15 pm 15:15 Cloudy 59 15 59 15 100 100 NNE 9 15 30.09 1019 10 16 0.02 0.51
3:35 pm 15:35 Cloudy 59 15 59 15 100 100 NNE 12 19 30.09 1019 10 16 0.05 1.27
3:55 pm 15:55 Cloudy 59 15 59 15 100 100 NE 12 19 30.09 1019 10 16 0.08 2.03
4:15 pm 16:15 Cloudy with Drizzle 59 15 59 15 100 100 NNE 7 11 30.09 1019 10 16 0.02 0.51
4:35 pm 16:35 Cloudy with Light Rain 59 15 59 15 100 100 NE 9 15 30.09 1019 7 11 0.05 1.27
4:55 pm 16:55 Cloudy with Drizzle 59 15 59 15 100 100 NE 7 11 30.09 1019 7 11 0.07 1.78
5:15 pm 17:15 Cloudy 61 16 61 16 100 100 NE 9 15 30.09 1019 10 16 0.02 0.51
5:35 pm 17:35 Cloudy 61 16 61 16 100 100 NNE 6 9 30.09 1019 10 16 0.04 1.02
5:55 pm 17:55 Cloudy 61 16 61 16 100 100 NE 5 7 30.09 1019 10 16 0.06 1.52
6:15 pm 18:15 Cloudy 61 16 61 16 100 100 NNE 7 11 30.09 1019 10 16 0.02 0.51
6:35 pm 18:35 Cloudy 61 16 61 16 100 100 NNE 3 6 30.09 1019 10 16 0.03 0.76
6:55 pm 18:55 Cloudy 61 16 61 16 100 100 NNE 6 9 30.09 1019 10 16 0.04 1.02
7:15 pm 19:15 Cloudy 61 16 61 16 100 100 NNE 5 7 30.09 1019 10 16 0.00 0.00
7:35 pm 19:35 Cloudy 61 16 61 16 100 100 NNE 5 7 30.09 1019 10 16 0.00 0.00
7:55 pm 19:55 Cloudy 63 17 61 16 94 94 NNE 6 9 30.09 1019 10 16 0.00 0.00
8:15 pm 20:15 Cloudy with Drizzle 61 16 61 16 100 100 NE 3 6 30.09 1019 10 16 0.00 0.00
8:35 pm 20:35 Cloudy 63 17 61 16 94 94 NE 8 13 30.12 1020 10 16 0.00 0.00
8:55 pm 20:55 Cloudy with Light Rain 63 17 61 16 94 94 NE 8 13 30.12 1020 10 16 0.00 0.00
9:15 pm 21:15 Cloudy with Drizzle 61 16 61 16 100 100 NE 6 9 30.12 1020 10 16 0.00 0.00
9:35 pm 21:35 Cloudy with Rain 61 16 61 16 100 100 NE 6 9 30.12 1020 10 16 0.00 0.00
9:55 pm 21:55 Cloudy with Drizzle 61 16 61 16 100 100 NNE 6 9 30.12 1020 10 16 0.00 0.00
10:15 pm 22:15 Cloudy with Heavy Rain 61 16 61 16 100 100 NNE 7 11 30.12 1020 7 11 0.01 0.25
10:35 pm 22:35 Cloudy with Rain 59 15 59 15 100 100 NNE 8 13 30.12 1020 4 6 0.02 0.51
10:55 pm 22:55 Cloudy with Heavy Rain 59 15 59 15 100 100 N 8 13 30.12 1020 4 6 0.04 1.02
11:15 pm 23:15 Cloudy with Heavy Rain 55 13 55 13 100 100 NNE 14 22 30.12 1020 4 6 0.02 0.51
11:35 pm 23:35 Cloudy with Light Rain 55 13 55 13 100 100 NNE 10 17 30.12 1020 7 11 0.03 0.76
11:55 pm 23:55 Cloudy with Drizzle 55 13 55 13 100 100 NNE 10 17 30.12 1020 10 16 0.05 1.27

Powered by AerisWeather